Orbital Elements at Epoch 2459000.5 (2020-May-31.0) TDB
Reference: JPL 15 (heliocentric ecliptic J2000)
Element | Value | Uncertainty (1-sigma) | Units |
e | .07539152782435878 | 5.951e-08 | |
a | 3.105560099819428 | 3.6973e-08 | au |
q | 2.871427179143673 | 2.063e-07 | au |
i | 11.28155499927577 | 4.6056e-06 | deg |
node | 145.6856934652444 | 3.7675e-05 | deg |
peri | 153.8586025032138 | 6.6448e-05 | deg |
M | 298.9148163346317 | 5.3247e-05 | deg |
tp | 2459339.688967204802 (2021-May-05.18896720) | 0.00029484 | TDB |
period | 1998.979472054148 5.47 | 3.5698e-05 9.774e-08 | d yr |
n | .1800918944055311 | 3.2161e-09 | deg/d |
Q | 3.339693020495183 | 3.976e-08 | au |
|
| | Orbit Determination Parameters
Additional Information
|